Location: Unspecified
(64.9000°N, 0.0000°E)
Time: 01:38:17
(UTC+00:00)

Altair - Pass Details

Date: 21 June 2019
Orbit: 1501 x 1683 km, 47.2° (Epoch: 19 August)

Event Time Altitude Azimuth Distance (km) Brightness Sun altitude
Rises 18:58:00 0° 181° (S) 4,731 9.9 15.4°
Reaches altitude 10° 19:03:39 10° 155° (SSE) 3,796 9.2 14.9°
Maximum altitude 19:07:00 12° 134° (SE) 3,640 9.0 14.5°
Drops below altitude 10° 19:10:23 10° 113° (ESE) 3,852 9.0 14.2°
Sets 19:16:12 0° 87° (E) 4,882 9.6 13.7°
